sat.trackr.live / text

‹ back to catalog

STARLINK-34577

NORAD 64719 · 2025-142Z

PAYLOAD ACTIVE UNKNOWN

§ Identity

Operator
Country
US
Launch date
2025-06-28
Launch site
AFWTR
Launch vehicle
Mass (kg)
RCS (m²)

Purposes: comms

External: N2YO · Heavens-Above · Gunter

§ Orbital elements

Epoch: 2026-05-25T05:24:24.884064Z

Period
96.11 min
Inclination
70.0001°
Eccentricity
0.0004037
Mean motion
14.98335601 rev/d
Perigee alt
569.2 km
Apogee alt
574.8 km
Semi-major
6,950.2 km
B*
2.0416e-4
RAAN
121.5052°
Arg perigee
264.6014°
Mean anomaly
95.4685°
Rev number
5,095

§ Raw data

STARLINK-345771 64719U 25142Z   26145.22528801  .00002344  00000+0  20416-3 0  99952 64719  70.0001 121.5052 0004037 264.6014  95.4685 14.98335601 50956

JSON: /api/v1/satellites/64719 · /tle

For live sub-satellite position, see the globe view (requires WebGL).

§ Visibility from observer

Set your observer location to see the next 7 days of passes ≥ 10°. The values pass through the URL so the page stays shareable.

No JS? Fill the form by hand. The geolocation button needs JavaScript.